• In Germany
  • List of Countries
  • For 7 days
  • Water Temperature
  • Satellite Maps
  • Weather Map
  • Weather Widgets
  • user-avatar
    Login

    Hourly Weather Bugojno

    Today, 16 January, Tuesday

    Time Temperature Precipitation Wind Pressure Humidity
    00:00 -1°C° 0 mm 2 mps 711 mmHg 92%
    01:00 -1°C° 0 mm 2 mps 711 mmHg 90%
    02:00 +1°C° 0 mm 2 mps 711 mmHg 90%
    03:00 +1°C° 0 mm 2 mps 710 mmHg 90%
    04:00 0°C° 0 mm 3 mps 710 mmHg 89%
    05:00 +1°C° 0.3 mm 3 mps 709 mmHg 89%
    06:00 +2°C° 0.3 mm 3 mps 708 mmHg 89%
    07:00 +2°C° 0.3 mm 3 mps 707 mmHg 89%
    08:00 +3°C° 0.4 mm 4 mps 707 mmHg 88%
    09:00 +4°C° 0.4 mm 4 mps 707 mmHg 86%
    10:00 +5°C° 0.4 mm 4 mps 706 mmHg 84%
    11:00 +5°C° 0.3 mm 5 mps 706 mmHg 83%
    12:00 +6°C° 0.3 mm 5 mps 705 mmHg 81%
    13:00 +6°C° 0.3 mm 5 mps 705 mmHg 80%
    14:00 +6°C° 0.3 mm 5 mps 704 mmHg 82%
    15:00 +5°C° 0.3 mm 4 mps 704 mmHg 84%
    16:00 +5°C° 0.3 mm 4 mps 704 mmHg 86%
    17:00 +5°C° 0.1 mm 4 mps 703 mmHg 87%
    18:00 +5°C° 0.1 mm 4 mps 703 mmHg 88%
    19:00 +4°C° 0.1 mm 4 mps 703 mmHg 90%
    20:00 +4°C° 0.1 mm 4 mps 703 mmHg 90%
    21:00 +5°C° 0.1 mm 4 mps 703 mmHg 90%
    22:00 +5°C° 0.1 mm 4 mps 703 mmHg 90%
    23:00 +5°C° 0.1 mm 4 mps 702 mmHg 90%

    Tomorrow, 17 January, Wednesday

    Time Temperature Precipitation Wind Pressure Humidity
    00:00 +5°C° 0.1 mm 4 mps 702 mmHg 91%
    01:00 +5°C° 0.1 mm 4 mps 702 mmHg 91%
    02:00 +5°C° 0.3 mm 4 mps 701 mmHg 91%
    03:00 +5°C° 0.3 mm 4 mps 700 mmHg 91%
    04:00 +5°C° 0.3 mm 4 mps 699 mmHg 92%
    05:00 +6°C° 0.6 mm 4 mps 699 mmHg 91%
    06:00 +6°C° 0.6 mm 4 mps 698 mmHg 91%
    07:00 +6°C° 0.6 mm 4 mps 698 mmHg 90%
    08:00 +6°C° 1.3 mm 5 mps 698 mmHg 90%
    09:00 +6°C° 1.3 mm 5 mps 697 mmHg 89%
    10:00 +5°C° 1.3 mm 6 mps 697 mmHg 89%
    11:00 +6°C° 1 mm 5 mps 697 mmHg 87%
    12:00 +6°C° 1 mm 5 mps 697 mmHg 84%
    13:00 +5°C° 1 mm 4 mps 697 mmHg 82%
    14:00 +4°C° 1.1 mm 4 mps 698 mmHg 83%
    15:00 +3°C° 1.1 mm 4 mps 698 mmHg 85%
    16:00 +1°C° 1.1 mm 5 mps 699 mmHg 86%
    17:00 0°C° 1.1 mm 5 mps 700 mmHg 86%
    18:00 0°C° 1.1 mm 5 mps 702 mmHg 86%
    19:00 -1°C° 1.1 mm 5 mps 703 mmHg 86%
    20:00 -2°C° 0.1 mm 4 mps 704 mmHg 83%
    21:00 -2°C° 0.1 mm 3 mps 705 mmHg 80%
    22:00 -5°C° 0.1 mm 3 mps 706 mmHg 77%
    23:00 -4°C° 0 mm 2 mps 706 mmHg 76%

    Day after tomorrow, 18 January, Thursday

    Time Temperature Precipitation Wind Pressure Humidity
    00:00 -5°C° 0 mm 2 mps 707 mmHg 74%
    01:00 -5°C° 0 mm 2 mps 707 mmHg 73%
    02:00 -5°C° 0 mm 2 mps 707 mmHg 72%
    03:00 -5°C° 0 mm 2 mps 708 mmHg 71%
    04:00 -5°C° 0 mm 2 mps 708 mmHg 70%
    05:00 -4°C° 0 mm 2 mps 708 mmHg 69%
    06:00 -4°C° 0 mm 2 mps 709 mmHg 69%
    07:00 -4°C° 0 mm 2 mps 709 mmHg 69%
    08:00 -2°C° 0 mm 2 mps 710 mmHg 68%
    09:00 +1°C° 0 mm 2 mps 710 mmHg 67%
    10:00 +2°C° 0 mm 3 mps 711 mmHg 66%
    11:00 +2°C° 0 mm 3 mps 710 mmHg 65%
    12:00 +3°C° 0 mm 4 mps 710 mmHg 64%
    13:00 +4°C° 0 mm 4 mps 709 mmHg 64%
    14:00 +4°C° 0 mm 4 mps 709 mmHg 66%
    15:00 +3°C° 0 mm 4 mps 708 mmHg 68%
    16:00 +2°C° 0 mm 3 mps 708 mmHg 70%
    17:00 +1°C° 0 mm 4 mps 708 mmHg 71%
    18:00 0°C° 0 mm 4 mps 708 mmHg 72%
    19:00 0°C° 0 mm 4 mps 708 mmHg 73%
    20:00 0°C° 0 mm 4 mps 708 mmHg 73%
    21:00 0°C° 0 mm 4 mps 708 mmHg 73%
    22:00 0°C° 0 mm 5 mps 708 mmHg 73%
    23:00 0°C° 0 mm 5 mps 707 mmHg 76%

    19 January, Friday

    Time Temperature Precipitation Wind Pressure Humidity
    00:00 0°C° 0 mm 5 mps 707 mmHg 78%
    01:00 +1°C° 0 mm 5 mps 707 mmHg 80%
    02:00 +1°C° 0 mm 5 mps 706 mmHg 82%
    03:00 +1°C° 0 mm 5 mps 706 mmHg 83%
    04:00 +2°C° 0 mm 5 mps 706 mmHg 85%
    05:00 +2°C° 0 mm 5 mps 705 mmHg 86%
    06:00 +2°C° 0 mm 5 mps 705 mmHg 87%
    07:00 +3°C° 0 mm 4 mps 705 mmHg 88%
    08:00 +3°C° 0.1 mm 5 mps 705 mmHg 88%
    09:00 +3°C° 0.1 mm 5 mps 705 mmHg 87%
    10:00 +5°C° 0.1 mm 5 mps 705 mmHg 87%
    11:00 +5°C° 0.1 mm 5 mps 705 mmHg 87%
    12:00 +5°C° 0.1 mm 5 mps 704 mmHg 87%
    13:00 +6°C° 0.1 mm 5 mps 704 mmHg 87%
    14:00 +5°C° 0.4 mm 5 mps 704 mmHg 88%
    15:00 +5°C° 0.4 mm 4 mps 704 mmHg 89%
    16:00 +5°C° 0.4 mm 4 mps 703 mmHg 90%
    17:00 +5°C° 0.6 mm 4 mps 703 mmHg 91%
    18:00 +5°C° 0.6 mm 4 mps 703 mmHg 92%
    19:00 +5°C° 0.6 mm 3 mps 703 mmHg 93%
    20:00 +5°C° 0.8 mm 3 mps 703 mmHg 94%
    21:00 +5°C° 0.8 mm 3 mps 703 mmHg 95%
    22:00 +5°C° 0.8 mm 3 mps 703 mmHg 96%
    23:00 +5°C° 1.4 mm 3 mps 703 mmHg 96%

    20 January, Saturday

    Time Temperature Precipitation Wind Pressure Humidity
    00:00 +6°C° 1.4 mm 2 mps 703 mmHg 97%
    01:00 +5°C° 1.4 mm 2 mps 703 mmHg 97%
    02:00 +5°C° 2.2 mm 2 mps 702 mmHg 97%
    03:00 +5°C° 2.2 mm 2 mps 702 mmHg 97%
    04:00 +5°C° 2.2 mm 2 mps 701 mmHg 97%
    05:00 +5°C° 3 mm 2 mps 701 mmHg 97%
    06:00 +5°C° 3 mm 2 mps 700 mmHg 97%
    07:00 +5°C° 3 mm 2 mps 700 mmHg 97%
    08:00 +4°C° 4.3 mm 2 mps 700 mmHg 97%
    09:00 +4°C° 4.3 mm 2 mps 700 mmHg 97%
    10:00 +4°C° 4.3 mm 2 mps 699 mmHg 97%
    11:00 +4°C° 4.2 mm 2 mps 699 mmHg 97%
    12:00 +4°C° 4.2 mm 2 mps 699 mmHg 97%
    13:00 +3°C° 4.2 mm 2 mps 698 mmHg 96%
    14:00 +3°C° 3.5 mm 2 mps 698 mmHg 97%
    15:00 +3°C° 3.5 mm 2 mps 698 mmHg 97%
    16:00 +2°C° 3.5 mm 2 mps 698 mmHg 97%
    17:00 +2°C° 2.6 mm 2 mps 698 mmHg 97%
    18:00 +1°C° 2.6 mm 2 mps 697 mmHg 97%
    19:00 +1°C° 2.6 mm 2 mps 697 mmHg 97%
    20:00 +1°C° 1.7 mm 2 mps 697 mmHg 96%
    21:00 -1°C° 1.7 mm 2 mps 697 mmHg 96%
    22:00 -1°C° 1.7 mm 3 mps 697 mmHg 96%
    23:00 -1°C° 1.9 mm 3 mps 696 mmHg 96%

    21 January, Sunday

    Time Temperature Precipitation Wind Pressure Humidity
    00:00 -2°C° 1.9 mm 4 mps 696 mmHg 95%
    01:00 -2°C° 1.9 mm 4 mps 696 mmHg 95%
    02:00 -3°C° 2.2 mm 4 mps 695 mmHg 95%
    03:00 -4°C° 2.2 mm 5 mps 695 mmHg 95%
    04:00 -4°C° 2.2 mm 5 mps 695 mmHg 95%
    05:00 -4°C° 1.7 mm 5 mps 695 mmHg 94%
    06:00 -5°C° 1.7 mm 5 mps 695 mmHg 94%
    07:00 -5°C° 1.7 mm 5 mps 695 mmHg 94%
    08:00 -5°C° 0.9 mm 5 mps 695 mmHg 93%
    09:00 -5°C° 0.9 mm 5 mps 695 mmHg 93%
    10:00 -5°C° 0.9 mm 6 mps 696 mmHg 92%
    11:00 -5°C° 0.6 mm 6 mps 696 mmHg 92%
    12:00 -5°C° 0.6 mm 6 mps 696 mmHg 91%
    13:00 -5°C° 0.6 mm 6 mps 696 mmHg 91%
    14:00 -5°C° 0.7 mm 6 mps 697 mmHg 91%
    15:00 -5°C° 0.7 mm 6 mps 698 mmHg 92%
    16:00 -5°C° 0.7 mm 6 mps 698 mmHg 92%
    17:00 -5°C° 0.7 mm 6 mps 699 mmHg 92%
    18:00 -6°C° 0.7 mm 6 mps 699 mmHg 92%
    19:00 -6°C° 0.7 mm 6 mps 700 mmHg 92%
    20:00 -6°C° 0.5 mm 6 mps 700 mmHg 92%
    21:00 -6°C° 0.5 mm 6 mps 701 mmHg 92%
    22:00 -6°C° 0.5 mm 6 mps 702 mmHg 92%
    23:00 -8°C° 0.3 mm 6 mps 702 mmHg 92%
    Show more